Regional Weather Roundup
Issued by NWS Albany, NY

Home | Current Version | Previous Version | Text Only | Print | Product List | Glossary On
Versions: 1 2 3 4 5 6 7 8 9 10 11 12 13 14 15 16 17 18 19 20 21 22 23 24 25 26 27 28 29 30 31 32 33 34 35 36 37 38 39 40 41 42 43 44 45 46 47 48 49 50
000
ASUS41 KALY 280810
RWRALY

NEW YORK STATE HOURLY WEATHER ROUNDUP
NATIONAL WEATHER SERVICE ALBANY NY
400 AM EDT THU MAY 28 2015

NOTE: "FAIR" INDICATES FEW OR NO CLOUDS BELOW 12,000 FEET WITH NO
SIGNIFICANT WEATHER AND/OR NO OBSTRUCTIONS TO VISIBILITY.

NYZ032-033-038>043-046>054-057>066-NYZ062>081-280900-
EAST


CITY           SKY/WX    TMP DP  RH WIND       PRES   REMARKS
ALBANY         CLOUDY    68  65  90 S3        30.07S
GLENS FALLS    CLOUDY    67  65  93 S5        30.06S
POUGHKEEPSIE   CLOUDY    67  64  90 CALM      30.11S
NEWBURGH       MOCLDY    66  66 100 CALM      30.13S
MONTGOMERY     CLOUDY    68  67  96 S5        30.11F FOG
WHITE PLAINS   MOCLDY    62  61  96 CALM      30.13S FOG
ISLIP          PTCLDY    63  59  87 SW9       30.14S
NEW YORK CITY  MOCLDY    69  62  78 S7        30.12S
CENTRAL PARK   PTCLDY    70  66  87 VRB6      30.15S
$$

NYZ005>009-017-018-044>046-055-056-280900-
CENTRAL


CITY           SKY/WX    TMP DP  RH WIND       PRES   REMARKS
FULTON         LGT RAIN  68  60  75 SW10      30.05R
SYRACUSE       MOCLDY    70  60  70 SW6       30.04R
ROME           MOCLDY    63  61  93 CALM      30.05S
ELMIRA         MOCLDY    66  60  81 W12       30.10R
BINGHAMTON     PTCLDY    64  63  96 S7        30.11S FOG
MONTICELLO     CLOUDY   N/A N/A N/A CALM      30.15S VSB<1/4
$$

NYZ026>034-041>043-280900-
NORTH


CITY           SKY/WX    TMP DP  RH WIND       PRES   REMARKS
WATERTOWN      CLOUDY    68  59  73 SW8       30.01R
FORT DRUM      NOT AVBL
MASSENA        CLOUDY    68  57  68 SW13      29.98R
SARANAC LAKE   PTCLDY    61  59  93 SW3       30.03R
PLATTSBURGH    PTCLDY    61  60  97 CALM      29.98S
$$

NYZ001>004-010>016-019>021-280900-
WEST


CITY           SKY/WX    TMP DP  RH WIND       PRES   REMARKS
NIAGARA FALLS  CLOUDY    62  58  86 W14       30.06R
BUFFALO        CLOUDY    63  58  83 W15G23    30.07R
DUNKIRK        CLOUDY    65  61  87 SW9       30.10R
JAMESTOWN      CLOUDY    59  55  88 SW13      30.13F
WELLSVILLE     LGT RAIN  60  56  86 S6        30.14F
ROCHESTER      LGT RAIN  64  61  90 SW9       30.05R
PENN YAN       CLOUDY    65  59  81 SW9       30.07S
$$

             KEY
       WCI = WIND CHILL INDEX
       VSB = VISIBILITY
       HX  = HEAT INDEX
$$


USA.gov is the U.S. government's official web portal to all federal, state and local government web resources and services.